When you browse on this site, cookies collect data to enhance your experience and personalize the content and advertising you see.
Visit our Privacy Policy to learn more. By continuing to use the site, you agree to this use of cookies and data.
  • în România
  • Lista ţărilor
  • Pe 7 zile
  • Temperatura apei
  • Hartă satelitară
  • Meteo pe hartă
  • Widget-uri
  • user-avatar
    Intrare

    Meteo pe oră la La Rioja

    Astăzi, 24 Iunie, Luni

    Timp Temperatura Precipitaţii Vânt Presiune Umiditate
    00:00 +16°C° 0 mm 1 m/s 711 mmHg 70%
    01:00 +16°C° 0 mm 1 m/s 711 mmHg 71%
    02:00 +15°C° 0 mm 1 m/s 710 mmHg 74%
    03:00 +15°C° 0 mm 1 m/s 710 mmHg 76%
    04:00 +14°C° 0 mm 1 m/s 709 mmHg 77%
    05:00 +14°C° 0 mm 1 m/s 708 mmHg 79%
    06:00 +14°C° 0 mm 1 m/s 708 mmHg 77%
    07:00 +15°C° 0 mm 1 m/s 708 mmHg 75%
    08:00 +14°C° 0 mm 0 m/s 708 mmHg 73%
    09:00 +18°C° 0 mm 1 m/s 707 mmHg 65%
    10:00 +21°C° 0 mm 1 m/s 707 mmHg 56%
    11:00 +23°C° 0 mm 1 m/s 706 mmHg 48%
    12:00 +24°C° 0 mm 1 m/s 705 mmHg 45%
    13:00 +25°C° 0 mm 1 m/s 704 mmHg 43%
    14:00 +26°C° 0 mm 1 m/s 703 mmHg 40%
    15:00 +26°C° 0 mm 1 m/s 702 mmHg 41%
    16:00 +26°C° 0 mm 1 m/s 702 mmHg 43%
    17:00 +25°C° 0 mm 1 m/s 702 mmHg 44%
    18:00 +23°C° 0 mm 2 m/s 702 mmHg 51%
    19:00 +21°C° 0 mm 3 m/s 703 mmHg 58%
    20:00 +19°C° 0 mm 4 m/s 704 mmHg 65%
    21:00 +19°C° 0 mm 4 m/s 705 mmHg 67%
    22:00 +17°C° 0 mm 5 m/s 705 mmHg 69%
    23:00 +17°C° 0 mm 6 m/s 706 mmHg 71%

    Mâine, 25 Iunie, Marţi

    Timp Temperatura Precipitaţii Vânt Presiune Umiditate
    00:00 +16°C° 0 mm 7 m/s 707 mmHg 66%
    01:00 +16°C° 0 mm 9 m/s 708 mmHg 61%
    02:00 +14°C° 0 mm 10 m/s 710 mmHg 56%
    03:00 +13°C° 0 mm 9 m/s 711 mmHg 49%
    04:00 +11°C° 0 mm 9 m/s 712 mmHg 42%
    05:00 +10°C° 0 mm 8 m/s 713 mmHg 34%
    06:00 +10°C° 0 mm 7 m/s 714 mmHg 31%
    07:00 +9°C° 0 mm 5 m/s 716 mmHg 27%
    08:00 +10°C° 0 mm 3 m/s 717 mmHg 23%
    09:00 +10°C° 0 mm 4 m/s 718 mmHg 21%
    10:00 +11°C° 0 mm 4 m/s 719 mmHg 20%
    11:00 +12°C° 0 mm 5 m/s 719 mmHg 18%
    12:00 +12°C° 0 mm 4 m/s 718 mmHg 18%
    13:00 +13°C° 0 mm 4 m/s 718 mmHg 18%
    14:00 +13°C° 0 mm 4 m/s 717 mmHg 17%
    15:00 +13°C° 0 mm 3 m/s 717 mmHg 18%
    16:00 +13°C° 0 mm 2 m/s 716 mmHg 19%
    17:00 +13°C° 0 mm 1 m/s 716 mmHg 20%
    18:00 +12°C° 0 mm 2 m/s 716 mmHg 22%
    19:00 +10°C° 0 mm 2 m/s 716 mmHg 23%
    20:00 +9°C° 0 mm 2 m/s 716 mmHg 25%
    21:00 +8°C° 0 mm 2 m/s 716 mmHg 26%
    22:00 +8°C° 0 mm 2 m/s 715 mmHg 28%
    23:00 +7°C° 0 mm 2 m/s 715 mmHg 29%

    Poimâine, 26 Iunie, Miercuri

    Timp Temperatura Precipitaţii Vânt Presiune Umiditate
    00:00 +8°C° 0 mm 1 m/s 715 mmHg 30%
    01:00 +8°C° 0 mm 1 m/s 714 mmHg 31%
    02:00 +7°C° 0 mm 1 m/s 713 mmHg 31%
    03:00 +7°C° 0 mm 1 m/s 713 mmHg 34%
    04:00 +6°C° 0 mm 1 m/s 712 mmHg 37%
    05:00 +6°C° 0 mm 1 m/s 711 mmHg 40%
    06:00 +6°C° 0 mm 1 m/s 711 mmHg 41%
    07:00 +7°C° 0 mm 1 m/s 711 mmHg 43%
    08:00 +7°C° 0 mm 1 m/s 711 mmHg 44%
    09:00 +9°C° 0 mm 1 m/s 711 mmHg 39%
    10:00 +11°C° 0 mm 1 m/s 711 mmHg 35%
    11:00 +13°C° 0 mm 1 m/s 711 mmHg 30%
    12:00 +14°C° 0 mm 1 m/s 710 mmHg 29%
    13:00 +15°C° 0 mm 1 m/s 709 mmHg 28%
    14:00 +16°C° 0 mm 1 m/s 708 mmHg 27%
    15:00 +16°C° 0 mm 1 m/s 708 mmHg 28%
    16:00 +15°C° 0 mm 1 m/s 708 mmHg 29%
    17:00 +15°C° 0 mm 1 m/s 707 mmHg 30%
    18:00 +14°C° 0 mm 1 m/s 707 mmHg 32%
    19:00 +13°C° 0 mm 1 m/s 708 mmHg 35%
    20:00 +11°C° 0 mm 1 m/s 708 mmHg 37%
    21:00 +11°C° 0 mm 1 m/s 708 mmHg 39%
    22:00 +10°C° 0 mm 1 m/s 708 mmHg 40%
    23:00 +10°C° 0 mm 1 m/s 708 mmHg 42%

    27 Iunie, Joi

    Timp Temperatura Precipitaţii Vânt Presiune Umiditate
    00:00 +9°C° 0 mm 1 m/s 708 mmHg 43%
    01:00 +9°C° 0 mm 1 m/s 707 mmHg 45%
    02:00 +8°C° 0 mm 1 m/s 707 mmHg 46%
    03:00 +8°C° 0 mm 1 m/s 707 mmHg 47%
    04:00 +8°C° 0 mm 1 m/s 706 mmHg 47%
    05:00 +8°C° 0 mm 1 m/s 706 mmHg 48%
    06:00 +8°C° 0 mm 1 m/s 706 mmHg 47%
    07:00 +8°C° 0 mm 1 m/s 706 mmHg 47%
    08:00 +9°C° 0 mm 1 m/s 706 mmHg 46%
    09:00 +11°C° 0 mm 1 m/s 706 mmHg 41%
    10:00 +14°C° 0 mm 1 m/s 706 mmHg 36%
    11:00 +16°C° 0 mm 1 m/s 706 mmHg 30%
    12:00 +18°C° 0 mm 1 m/s 705 mmHg 29%
    13:00 +19°C° 0 mm 1 m/s 704 mmHg 28%
    14:00 +19°C° 0 mm 2 m/s 704 mmHg 26%
    15:00 +20°C° 0 mm 1 m/s 703 mmHg 28%
    16:00 +19°C° 0 mm 1 m/s 703 mmHg 29%
    17:00 +19°C° 0 mm 1 m/s 703 mmHg 31%
    18:00 +16°C° 0 mm 1 m/s 703 mmHg 33%
    19:00 +15°C° 0 mm 1 m/s 703 mmHg 35%
    20:00 +13°C° 0 mm 1 m/s 703 mmHg 37%
    21:00 +13°C° 0 mm 1 m/s 702 mmHg 37%
    22:00 +12°C° 0 mm 1 m/s 702 mmHg 38%
    23:00 +12°C° 0 mm 1 m/s 702 mmHg 38%

    28 Iunie, Vineri

    Timp Temperatura Precipitaţii Vânt Presiune Umiditate
    00:00 +11°C° 0 mm 1 m/s 702 mmHg 41%
    01:00 +11°C° 0 mm 1 m/s 702 mmHg 43%
    02:00 +11°C° 0 mm 1 m/s 702 mmHg 46%
    03:00 +11°C° 0 mm 1 m/s 701 mmHg 51%
    04:00 +10°C° 0 mm 1 m/s 701 mmHg 56%
    05:00 +10°C° 0 mm 1 m/s 701 mmHg 61%
    06:00 +11°C° 0 mm 1 m/s 701 mmHg 58%
    07:00 +11°C° 0 mm 1 m/s 702 mmHg 55%
    08:00 +11°C° 0 mm 1 m/s 702 mmHg 52%
    09:00 +14°C° 0 mm 1 m/s 703 mmHg 45%
    10:00 +18°C° 0 mm 1 m/s 704 mmHg 38%
    11:00 +21°C° 0 mm 1 m/s 704 mmHg 32%
    12:00 +22°C° 0 mm 1 m/s 704 mmHg 29%
    13:00 +24°C° 0 mm 1 m/s 704 mmHg 26%
    14:00 +25°C° 0 mm 1 m/s 704 mmHg 23%
    15:00 +24°C° 0 mm 2 m/s 704 mmHg 23%
    16:00 +24°C° 0 mm 3 m/s 704 mmHg 23%
    17:00 +23°C° 0 mm 4 m/s 704 mmHg 23%
    18:00 +21°C° 0 mm 3 m/s 705 mmHg 24%
    19:00 +20°C° 0 mm 3 m/s 706 mmHg 24%
    20:00 +18°C° 0 mm 3 m/s 707 mmHg 24%
    21:00 +18°C° 0 mm 4 m/s 708 mmHg 26%
    22:00 +17°C° 0 mm 4 m/s 709 mmHg 27%
    23:00 +15°C° 0 mm 5 m/s 709 mmHg 29%

    29 Iunie, Sâmbătă

    Timp Temperatura Precipitaţii Vânt Presiune Umiditate
    00:00 +13°C° 0 mm 4 m/s 710 mmHg 37%
    01:00 +11°C° 0 mm 4 m/s 711 mmHg 44%
    02:00 +9°C° 0 mm 3 m/s 711 mmHg 52%
    03:00 +9°C° 0 mm 3 m/s 712 mmHg 54%
    04:00 +8°C° 0 mm 2 m/s 712 mmHg 55%
    05:00 +7°C° 0 mm 2 m/s 713 mmHg 56%
    06:00 +7°C° 0 mm 2 m/s 714 mmHg 54%
    07:00 +8°C° 0 mm 1 m/s 715 mmHg 52%
    08:00 +8°C° 0 mm 1 m/s 716 mmHg 50%
    09:00 +10°C° 0 mm 1 m/s 716 mmHg 44%
    10:00 +10°C° 0 mm 2 m/s 717 mmHg 38%
    11:00 +13°C° 0 mm 2 m/s 718 mmHg 31%
    12:00 +12°C° 0 mm 3 m/s 717 mmHg 30%
    13:00 +13°C° 0 mm 3 m/s 717 mmHg 29%
    14:00 +13°C° 0 mm 3 m/s 716 mmHg 28%
    15:00 +13°C° 0 mm 3 m/s 716 mmHg 28%
    16:00 +13°C° 0 mm 3 m/s 716 mmHg 28%
    17:00 +12°C° 0 mm 3 m/s 717 mmHg 28%
    18:00 +11°C° 0 mm 3 m/s 717 mmHg 30%
    19:00 +10°C° 0 mm 2 m/s 718 mmHg 32%
    20:00 +8°C° 0 mm 2 m/s 719 mmHg 35%
    21:00 +8°C° 0 mm 2 m/s 719 mmHg 36%
    22:00 +7°C° 0 mm 2 m/s 719 mmHg 37%
    23:00 +7°C° 0 mm 2 m/s 719 mmHg 39%
    Arată mai mult